Regional Weather Roundup
Issued by NWS Jackson, KY

Home | Current Version | Previous Version | Text Only | Print | Product List | Glossary Off
Versions: 1 2 3 4 5 6 7 8 9 10 11 12 13 14 15 16 17 18 19 20 21 22 23 24 25 26 27 28 29 30 31 32 33 34 35 36 37 38 39 40 41 42 43 44 45 46 47 48 49 50

861
ASUS43 KJKL 222310
RWRJKL

EAST KENTUCKY HOURLY WEATHER ROUNDUP
NATIONAL WEATHER SERVICE JACKSON KY
600 PM EST THU FEB 22 2018

NOTE: "FAIR" INDICATES FEW OR NO CLOUDS BELOW 12,000 FEET WITH
NO SIGNIFICANT WEATHER AND/OR OBSTRUCTIONS TO VISIBILITY.

* THESE REPORTS ARE NOT UNDER NWS QUALITY CONTROL AND MAY NOT
  REPORT WEATHER SUCH AS PRECIPITATION AND FOG.

KYZ079-080-083-085-087-088-110-112-115-119-120-230000
...EASTERN KENTUCKY...

CITY           SKY/WX    TMP DP  RH WIND       PRES   REMARKS
JACKSON          N/A     57  54  89 VRB3      30.36S
LONDON           N/A     67  60  78 NW6       30.34R
SOMERSET*        N/A     61  61 100 CALM      30.34F
WILLIAMSBURG*  MOCLDY    68  61  77 CALM      30.34R
MIDDLESBORO*   CLOUDY    70  62  76 CALM      30.34R
HARLAN APT*    CLOUDY    68  61  77 CALM      30.34F
PIKE CO APT*   CLOUDY    54  54 100 NE3       30.37F
BIG SANDY APT* CLOUDY    53  53  99 E3        30.37F
MOREHEAD APT*  CLOUDY    48  46  93 VRB6      30.39R
ASHLAND*       CLOUDY    47  45  93 E5        30.40F
$$

KYZ035-036-041-042-044-050-067-078-099-230000
...CENTRAL KENTUCKY...

CITY           SKY/WX    TMP DP  RH WIND       PRES   REMARKS
MT STERLING*   CLOUDY    50  50 100 CALM      30.38S
FLEMING/MASON* CLOUDY    46  45  98 E8        30.39S
DANVILLE*      CLOUDY    52  52 100 CALM      30.36S
LEXINGTON      CLOUDY    50  47  89 E6        30.36R
FRANKFORT      CLOUDY    49  45  86 E7        30.35R
LOUISVILLE     CLOUDY    50  48  93 E7        30.34S FOG
LEBANON*       CLOUDY    54  54 100 CALM      30.34R
GLASGOW*       CLOUDY   N/A N/A N/A CALM      30.33R
BOWLING GREEN  CLOUDY    60  59  96 S6        30.32R
$$

KYZ091>093-OHZ055-061-077-WVZ005-015-034-035-042-230000
...SOUTHERN OHIO/WEST VIRGINIA...

CITY           SKY/WX    TMP DP  RH WIND       PRES   REMARKS
COVINGTON      CLOUDY    45  43  93 E13       30.35F
COLUMBUS       CLOUDY    45  41  86 E9        30.42S
DAYTON         CLOUDY    46  42  86 E12       30.37F
WILMINGTON     CLOUDY    43  43 100 E10       30.38F
HUNTINGTON     CLOUDY    47  45  93 E6        30.39F
CHARLESTON     CLOUDY    51  49  92 NE5       30.39S
BECKLEY        MOCLDY    57  56  96 CALM      30.42R
BLUEFIELD        N/A     63  54  72 VRB3      30.42R
LOGAN CO APT*  MOCLDY    57  54  88 CALM      30.38F
$$

VAZ002-007-008-TNZ017-027-036-066-071-230000
...SOUTHWEST VIRGINIA/EAST TENNESSEE...

CITY           SKY/WX    TMP DP  RH WIND       PRES   REMARKS
WISE*            N/A     68  55  64 NE5       30.41S
JONESVILLE*      N/A     73  57  56 SW5       30.35F
ABINGDON*        N/A     73  55  52 W3        30.38R
BRISTOL        MOCLDY    73  57  57 SW5       30.35R
MORRISTOWN*    CLOUDY    73  59  60 NW5       30.34R
SEVIERVILLE*   MOCLDY    77  57  50 VRB6G13   30.31S
KNOXVILLE      CLOUDY    71  62  73 NW3       30.31S
LAFOLLETTE*    PTCLDY    68  61  77 CALM      30.37R
OAK RIDGE        N/A     67  66  97 CALM      30.34S
CROSSVILLE       N/A     65  60  84 CALM      30.35F
NASHVILLE      CLOUDY    60  57  89 N3        30.32F
$$

...KEY TO REMARKS...
VSB - VISIBILITY IN MILES
WCI - WIND CHILL INDEX
HX  - HEAT INDEX

$$




USA.gov is the U.S. government's official web portal to all federal, state and local government web resources and services.